Weather History for Alturas, CA

Change the Weather History Date:

Tuesday, March 13, 2012

  Actual Average Record
Temperature  
Mean Temperature 42 °F 38 °F  
Max Temperature 45 °F 52 °F 75 °F (1934)
Min Temperature 38 °F 25 °F 5 °F (1950)
Degree Days  
Heating Degree Days 23 27  
Month to date heating degree days 381 358  
Since 1 July heating degree days 5036 5225  
Cooling Degree Days 0 0  
Month to date cooling degree days 0 0  
Year to date cooling degree days 0 0  
Moisture  
Dew Point 34 °F    
Average Humidity 75    
Maximum Humidity 100    
Minimum Humidity 49    
Precipitation  
Precipitation 0.19 in 0.05 in 0.80 in (1971)
Month to date precipitation 0.28 0.61  
Year to date precipitation 2.06 3.71  
Sea Level Pressure  
Sea Level Pressure 29.68 in    
Wind  
Wind Speed 17 mph (SSW)    
Max Wind Speed 40 mph    
Max Gust Speed 53 mph    
Visibility 10 miles    
Events Rain    
T = Trace of Precipitation, MM = Missing Value Source: NWS Daily Summary

Daily Weather History Graph

Daily Weather History Graph

Search for Another Location

Airport:

Trip Planner

Search our weather history database for the weather conditions in past years. The results will help you decide how hot, cold, wet, or windy it might be!

Date:

Astronomy

Mar. 13, 2012 Rise Set
Actual Time 7:16 AM PDT 7:07 PM PDT
Civil Twilight 6:48 AM PDT 7:34 PM PDT
Nautical Twilight 6:16 AM PDT 8:07 PM PDT
Astronomical Twilight 5:44 AM PDT 8:39 PM PDT
Moon 12:49 AM PDT (3/13) 10:29 AM PDT (3/13)
Length of Visible Light 12h 46m
Length of Day
11h 50m
Waning Gibbous, 64% of the Moon is Illuminated
Mar 13
Waning Gibbous
Mar 14
Last Quarter
Mar 22
New
Mar 30
First Quarter
Apr 6
Full

Hourly Weather History & Observations

Time (PDT) Temp. Windchill Dew Point Humidity Pressure Visibility Wind Dir Wind Speed Gust Speed Precip Events Conditions
12:55 AM 41.0 °F 29.7 °F 25.0 °F 53% 29.59 in 10.0 mi South 31.1 mph 54.1 mph N/A   Scattered Clouds
1:55 AM 42.1 °F 31.1 °F 26.1 °F 53% 29.58 in 10.0 mi South 31.1 mph 40.3 mph N/A   Overcast
2:55 AM 41.0 °F 30.2 °F 27.0 °F 57% 29.58 in 10.0 mi South 27.6 mph 38.0 mph N/A   Overcast
3:55 AM 41.0 °F 29.7 °F 28.0 °F 60% 29.53 in 10.0 mi South 31.1 mph 36.8 mph N/A   Overcast
4:55 AM 42.1 °F 31.9 °F 28.0 °F 58% 29.49 in 10.0 mi South 26.5 mph 51.8 mph N/A   Partly Cloudy
5:55 AM 44.1 °F 35.2 °F 27.0 °F 51% 29.51 in 10.0 mi SSW 23.0 mph 39.1 mph N/A   Mostly Cloudy
7:46 AM 39.2 °F 29.3 °F 33.8 °F 81% 29.59 in 10.0 mi SW 20.7 mph 50.6 mph 0.01 in Rain Light Rain
7:55 AM 41.0 °F 30.9 °F 33.1 °F 73% 29.59 in 10.0 mi SSW 24.2 mph 41.4 mph 0.01 in Rain Light Rain
8:55 AM 41.0 °F 31.4 °F 33.1 °F 73% 29.62 in 10.0 mi WSW 21.9 mph 34.5 mph 0.00 in Rain Light Rain
9:36 AM 39.2 °F 29.6 °F 35.6 °F 87% 29.66 in 10.0 mi SW 19.6 mph 28.8 mph 0.00 in Rain Light Rain
9:55 AM 39.0 °F 28.5 °F 35.1 °F 86% 29.65 in 10.0 mi SW 23.0 mph 35.7 mph 0.01 in Rain Light Rain
10:22 AM 39.2 °F 28.0 °F 35.6 °F 87% 29.66 in 10.0 mi SW 26.5 mph 38.0 mph 0.01 in Rain Light Rain
10:55 AM 41.0 °F 31.6 °F 36.0 °F 82% 29.68 in 10.0 mi SW 20.7 mph 31.1 mph 0.01 in Rain Light Rain
11:38 AM 42.8 °F 34.3 °F 37.4 °F 81% 29.70 in 10.0 mi SSW 19.6 mph 29.9 mph 0.01 in Rain Light Rain
11:55 AM 43.0 °F 35.4 °F 37.0 °F 80% 29.70 in 10.0 mi SSW 16.1 mph 25.3 mph 0.01 in Rain Light Rain
12:55 PM 44.1 °F 36.5 °F 37.0 °F 76% 29.73 in 10.0 mi SSW 17.3 mph 25.3 mph 0.00 in Rain Light Rain
1:55 PM 43.0 °F 36.0 °F 37.0 °F 80% 29.75 in 10.0 mi SSW 13.8 mph 21.9 mph 0.01 in Rain Light Rain
2:55 PM 44.1 °F 36.2 °F 37.0 °F 76% 29.75 in 10.0 mi SSW 18.4 mph 28.8 mph 0.00 in Rain Light Rain
3:55 PM 43.0 °F 36.4 °F 37.0 °F 80% 29.77 in 10.0 mi SSW 12.7 mph 20.7 mph 0.00 in Rain Light Rain
4:55 PM 45.0 °F 38.2 °F 36.0 °F 71% 29.75 in 10.0 mi SW 15.0 mph - 0.00 in   Overcast
5:55 PM 42.1 °F 35.2 °F 35.1 °F 76% 29.76 in 10.0 mi South 12.7 mph 19.6 mph N/A   Overcast
6:55 PM 41.0 °F 34.3 °F 35.1 °F 79% 29.78 in 10.0 mi South 11.5 mph 19.6 mph 0.00 in   Overcast
7:55 PM 39.0 °F 35.7 °F 37.0 °F 93% 29.80 in 9.0 mi SSW 4.6 mph - 0.01 in Rain Light Rain
8:55 PM 39.0 °F 34.0 °F 37.0 °F 93% 29.80 in 10.0 mi South 6.9 mph - 0.02 in   Overcast
9:55 PM 39.0 °F 33.4 °F 37.0 °F 93% 29.82 in 10.0 mi South 8.1 mph - 0.01 in Rain Light Rain
10:55 PM 39.0 °F 34.0 °F 37.0 °F 93% 29.82 in 10.0 mi South 6.9 mph - 0.02 in Rain Light Rain
11:55 PM 37.9 °F 32.1 °F 37.0 °F 97% 29.81 in 10.0 mi South 8.1 mph - 0.04 in Rain Light Rain